Regional Weather Roundup
Issued by NWS Sterling, VA

Home | Current Version | Previous Version | Graphics & Text | Print | Product List | Glossary On
Versions: 1 2 3 4 5 6 7 8 9 10 11 12 13 14 15 16 17 18 19 20 21 22 23 24 25 26 27
000
ASUS41 KLWX 202110
RWRLWX

REGIONAL WEATHER ROUNDUP
NATIONAL WEATHER SERVICE BALTIMORE MD/WASHINGTON DC
400 PM EST MON FEB 20 2017

Note: "FAIR" indicates few or no clouds below 12,000 feet
with no significant weather and/or obstructions to visibility.
 TC=TEMPERATURE CELSIUS

 * =Non NWS site. Station does not report precipitation (e.g. rain,
    snow, etc.), thunder, or fog.

DCZ001-MDZ009-015-VAZ040>042-051-053>054-202200-
WASHINGTON METRO

CITY           SKY/WX    TMP DP  RH WIND       PRES   REMARKS
WASHINGTON NAT MOSUNNY   68  30  24 N9        30.19S
DULLES         MOSUNNY   64  33  31 N9        30.20R
ANDREWS AFB    SUNNY     64  31  28 N9        30.18S
FT BELVOIR     SUNNY     67  28  23 NW10      30.19R
QUANTICO       SUNNY     64  36  35 NE10      30.19S
COLLEGE PARK*  SUNNY     63  32  31 NE7       30.19R
LEESBURG*      SUNNY     64  37  36 N3G17     30.21R
MANASSAS*      SUNNY     67  36  31 N9        30.19S
GAITHERSBURG*  SUNNY     63  28  27 CALM      30.23S

$$

MDZ006>007-011-014-202200-
BALTIMORE METRO

CITY           SKY/WX    TMP DP  RH WIND       PRES   REMARKS
BWI AIRPORT    MOSUNNY   62  29  28 N7        30.19S
MD SCIENCE CTR   N/A     61  28  28 MISG      30.21R
MARTIN STATE   MOSUNNY   63  32  31 N8        30.22R
ANNAPOLIS      SUNNY     58  34  40 NE9       30.20S
FORT MEADE*    SUNNY     61  30  31 N5        30.21S

$$

MDZ012-015-019>023-202200-
MARYLAND EASTERN SHORE

CITY           SKY/WX    TMP DP  RH WIND       PRES   REMARKS
OCEAN CITY     SUNNY     57  33  40 NE12      30.19R
SALISBURY      SUNNY     61  33  35 NW13      30.19R
BAY BRIDGE AP* SUNNY     61  34  36 N9        30.21S
EASTON*        MOSUNNY   63  32  31 NE10      30.24R

$$

MDZ017>025-202200-
SOUTHERN MARYLAND

CITY           SKY/WX    TMP DP  RH WIND       PRES   REMARKS
PATUXENT RIVER SUNNY     59  35  40 NE10      30.20R
ST INIGOES     SUNNY     61  33  35 N9        30.19R
LEONARDTOWN*   SUNNY     59  32  36 NE5       30.21S

$$

MDZ003>005-202200-
NORTH CENTRAL MARYLAND

CITY           SKY/WX    TMP DP  RH WIND       PRES   REMARKS
FREDERICK*     SUNNY     63  30  29 N9        30.22S
HAGERSTOWN APT SUNNY     63  29  27 NE12      30.19F
WESTMINSTER*   SUNNY     61  34  36 NE9       30.20S

$$

MDZ501>502-202200-
WESTERN MARYLAND

CITY           SKY/WX    TMP DP  RH WIND       PRES   REMARKS
OAKLAND*       SUNNY     55  30  38 NW3       30.22S
CUMBERLAND*    SUNNY     68  30  24 N3        30.22R

$$

VAZ025>031-202200-
SHENANDOAH VALLEY

CITY           SKY/WX    TMP DP  RH WIND       PRES   REMARKS
WINCHESTER*    SUNNY     64  34  32 N3        30.19R
FRONT ROYAL*   SUNNY     68  37  32 N7        30.17R
LURAY*         SUNNY     70  37  30 CALM      30.17R
NEW MARKET*    SUNNY     69  29  22 CALM      30.16S
STAUNTON*      SUNNY     66  32  28 CALM      30.20R
WAYNESBORO*    SUNNY     67  29  24 N3        30.18S

$$

WVZ021-048>050-054>055-202200-
EASTERN WEST VIRGINIA PANHANDLE

CITY           SKY/WX    TMP DP  RH WIND       PRES   REMARKS
MARTINSBURG    SUNNY     66  32  28 E8        30.18S
PETERSBURG*    SUNNY     70  38  30 CALM      30.18R

$$

VAZ036>039-050-202200-
CENTRAL FOOTHILLS

CITY           SKY/WX    TMP DP  RH WIND       PRES   REMARKS
CHARLOTTESVILL SUNNY     73  31  21 CALM      30.16S
CULPEPER*      SUNNY     69  38  32 E6        30.18S
ORANGE*        SUNNY     68  36  30 CALM      30.18S
GORDONSVILLE*  SUNNY     69  36  29 E3        30.16S
WARRENTON*     SUNNY     69  30  23 N6        30.18S

$$

VAZ055>057-202200-
NORTH AND CENTRAL PIEDMONT

CITY           SKY/WX    TMP DP  RH WIND       PRES   REMARKS
FREDERICKSBRG* SUNNY     67  39  35 E7        30.17S
STAFFORD*      SUNNY     67  37  33 N7        30.22S

$$

NCZ024-NYZ072-PAZ021-071-VAZ022-071-202200-
OTHER REGIONAL OBSERVATIONS

CITY           SKY/WX    TMP DP  RH WIND       PRES   REMARKS
NEW YORK CITY  SUNNY     53  10  18 VRB6      30.21R
PHILADELPHIA   MOSUNNY   57  22  25 NW12G23   30.21S
PITTSBURGH     PTSUNNY   61  31  32 N3        30.21S
ROANOKE        CLOUDY    71  24  17 VRB5      30.18S
RICHMOND       PTSUNNY   69  38  32 VRB3      30.17S
RALEIGH        PTSUNNY   71  31  22 SE3       30.17S

$$

ANZ530>537-202200-
MARINE OBSERVATIONS

STATION/POSITION TIME  TEMP    WIND        PRES
                       AIR SEA DIR/SP/G
                 (UTC) (F)     (DEG/KT/KT) (MB)
THOMAS PT LIGHT  2100   53 43   30/ 13/ 13   N/A
BALT KEY BRIDGE  2048   58     350/  8/  9 1022.6R
COVE POINT       2048   52      20/  8/  9 1023.0F
LEWISETTA        2048   53 47  120/  4/  4 1022.1R
SOLOMONS ISLAND  2048   57 42   30/  8/ 12   N/A
PINEY POINT      2048           80/  6/  8   N/A

$$





USA.gov is the U.S. government's official web portal to all federal, state and local government web resources and services.